Zurück zum Katalog

COSMOS 2251 DEB

AktivLEO
NORAD 40792·DEBRIS·🇷🇺 Russia

Gestartet Jun 16, 1993 von Plesetsk Cosmodrome

Loading…

Nächste Überflüge (nächste 24 Stunden)

TLE

AlterndSource: Space-Track

Epoche: Sep 11, 2026, 07:23 UTC

1 40792U 93036BVV 26254.30795520  .00003190  00000-0  53191-3 0  9998
2 40792  74.0409 239.9402 0020126 273.1865 150.6092 14.70294433671879

Verfolge COSMOS 2251 DEB in Echtzeit mit AllMySat

Download on the App Store